EW1804 Weather Reports


time (UTC)temp
F
wind
direction
speed
knots
gust
knots
rain 1hr
in
rain 24hr
in
rain mn
in
humidity
%
barometer
mb
20260506084502 54 211 12.2 25.2 0.00 0.00 0.00 91 1015.3
20260506084005 53 209 12.2 20.0 0.00 0.00 0.00 90 1015.3
20260506083502 53 203 12.2 20.0 0.00 0.00 0.00 90 1015.3
20260506083003 53 202 13.0 20.0 0.00 0.00 0.00 90 1015.3
20260506082503 54 205 12.2 23.5 0.00 0.00 0.00 90 1015.2
20260506082023 54 209 10.4 23.5 0.00 0.00 0.00 89 1015.2
20260506081502 54 211 11.3 20.9 0.00 0.00 0.00 89 1015.5
20260506081002 54 210 11.3 20.0 0.00 0.00 0.00 89 1015.5
20260506080502 54 211 11.3 20.0 0.00 0.00 0.00 89 1015.5
20260506073524 55 214 13.9 26.1 0.00 0.00 0.00 88 1015.5
20260506073003 55 213 13.0 25.2 0.00 0.00 0.00 88 1015.3
20260506072524 55 216 13.9 25.2 0.00 0.00 0.00 87 1015.3
20260506072003 55 216 13.9 23.5 0.00 0.00 0.00 87 1015.4
20260506071503 55 218 11.3 22.6 0.00 0.00 0.00 87 1015.4
20260506071002 55 220 9.6 19.1 0.00 0.00 0.00 87 1015.5
20260506070502 55 220 10.4 20.9 0.00 0.00 0.00 86 1015.5
20260506062503 55 222 10.4 18.2 0.00 0.00 0.00 86 1015.7
20260506062003 55 222 11.3 26.1 0.00 0.00 0.00 86 1015.7
20260506061503 55 221 12.2 26.1 0.00 0.00 0.00 86 1015.7
20260506061002 55 219 13.0 22.6 0.00 0.00 0.00 86 1015.7
20260506060524 55 216 13.0 25.2 0.00 0.00 0.00 86 1015.7
20260506051002 55 223 14.8 26.1 0.00 0.00 0.00 87 1015.3
20260506050502 55 221 14.8 26.1 0.00 0.00 0.00 87 1015.3
20260506045002 55 220 13.9 22.6 0.00 0.00 0.00 88 1015.2
20260506044502 55 218 14.8 25.2 0.00 0.00 0.00 88 1015.2
20260506044002 55 217 14.8 26.1 0.00 0.00 0.00 88 1015.3
20260506043503 55 218 14.8 26.1 0.00 0.00 0.00 88 1015.4
20260506043003 55 217 14.8 26.1 0.00 0.00 0.00 88 1015.2
20260506042503 54 217 13.9 26.1 0.00 0.00 0.00 88 1015.3
20260506042003 54 218 13.9 24.3 0.00 0.00 0.00 88 1015.3
20260506041503 54 218 13.9 25.2 0.00 0.00 0.00 88 1015.3
20260506041023 54 215 13.0 25.2 0.00 0.00 0.00 87 1015.3
20260506040502 54 212 13.0 26.1 0.00 0.00 0.00 87 1015.1
20260506040003 54 216 12.2 26.1 0.00 0.00 0.00 87 1015.2
20260506035524 54 219 12.2 24.3 0.00 0.00 0.00 88 1015.2
20260506035005 53 223 13.0 24.3 0.00 0.00 0.00 87 1015.2
20260506034503 53 222 13.9 23.5 0.00 0.00 0.00 87 1015.2
20260506034003 53 219 14.8 26.9 0.00 0.00 0.00 87 1015.1
20260506033503 53 217 14.8 26.9 0.00 0.00 0.00 88 1015.1
20260506033002 53 218 13.9 25.2 0.00 0.00 0.00 88 1015.1
20260506032503 53 220 13.9 27.8 0.00 0.00 0.00 88 1015.3
20260506032003 53 217 13.9 27.8 0.00 0.00 0.00 88 1015.1
20260506031503 53 214 13.9 24.3 0.00 0.00 0.00 88 1015.1
20260506031003 53 212 13.9 25.2 0.00 0.00 0.00 89 1015.2
20260506030502 53 211 13.9 25.2 0.00 0.00 0.00 89 1015.0
20260506030003 53 211 13.0 23.5 0.00 0.00 0.00 89 1015.2
20260506025502 53 211 13.9 23.5 0.00 0.00 0.00 89 1015.2
20260506025024 53 212 14.8 23.5 0.00 0.00 0.00 89 1015.2
20260506024503 53 212 13.9 23.5 0.00 0.00 0.00 89 1015.1
20260506024003 53 212 13.9 21.7 0.00 0.00 0.00 89 1015.1
20260506023503 53 211 13.9 22.6 0.00 0.00 0.00 89 1015.1
20260506023003 53 209 13.9 23.5 0.00 0.00 0.00 89 1015.0
20260506022503 53 209 14.8 24.3 0.00 0.00 0.00 89 1015.0
20260506022002 53 208 14.8 28.7 0.00 0.00 0.00 89 1014.9
20260506021503 53 209 15.6 28.7 0.00 0.00 0.00 89 1014.9
20260506021002 53 214 14.8 26.9 0.00 0.00 0.00 89 1015.1
20260506020503 53 215 15.6 25.2 0.00 0.00 0.00 89 1015.0
20260506020003 53 212 15.6 26.1 0.00 0.00 0.00 89 1015.1
20260506015503 53 210 13.9 26.1 0.00 0.00 0.00 89 1015.1
20260506015002 52 209 13.0 24.3 0.00 0.00 0.00 89 1015.1
20260506014524 52 211 13.0 23.5 0.00 0.00 0.00 89 1015.0
20260506014003 53 213 13.0 23.5 0.00 0.00 0.00 89 1015.0
20260506013503 53 216 13.9 22.6 0.00 0.00 0.00 89 1015.0
20260506013002 52 218 12.2 22.6 0.00 0.00 0.00 90 1014.9
20260506012502 52 215 11.3 20.0 0.00 0.00 0.00 90 1014.8
20260506012002 52 216 12.2 22.6 0.00 0.00 0.00 90 1014.8
20260506011503 52 218 13.0 22.6 0.00 0.00 0.00 90 1014.8
20260506011024 51 212 13.9 22.6 0.00 0.00 0.00 90 1014.5
20260506010503 51 209 13.9 23.5 0.00 0.00 0.00 90 1014.5
20260506010002 51 211 13.0 23.5 0.00 0.00 0.00 90 1014.4
20260506005503 51 212 12.2 20.9 0.00 0.00 0.00 89 1014.4
20260506005003 51 214 13.0 24.3 0.00 0.00 0.00 89 1014.4
20260506004503 51 214 13.9 24.3 0.00 0.00 0.00 89 1014.2
20260506004003 51 213 13.9 24.3 0.00 0.00 0.00 88 1014.1
20260506003503 52 213 12.2 24.3 0.00 0.00 0.00 88 1014.2
20260506003003 52 211 12.2 20.9 0.00 0.00 0.00 87 1014.0
20260506002503 52 212 13.0 25.2 0.00 0.00 0.00 86 1013.9
20260506002003 52 211 13.0 25.2 0.00 0.00 0.00 86 1013.8
20260506001503 52 212 13.0 21.7 0.00 0.00 0.00 85 1013.8
20260506001003 53 215 13.0 22.6 0.00 0.00 0.00 84 1013.7
20260506000503 53 216 13.0 22.6 0.00 0.00 0.00 83 1013.7
20260506000025 53 216 12.2 21.7 0.00 0.00 0.00 83 1013.7
20260505235503 54 213 12.2 20.9 0.00 0.00 0.00 81 1013.7
20260505235003 54 212 13.0 25.2 0.00 0.00 0.00 80 1013.6
20260505234504 54 212 13.0 25.2 0.00 0.00 0.00 79 1013.5
20260505234003 55 217 13.0 24.3 0.00 0.00 0.00 78 1013.4
20260505233503 55 216 13.0 25.2 0.00 0.00 0.00 77 1013.5
20260505233003 56 211 13.9 25.2 0.00 0.00 0.00 76 1013.3
20260505232524 56 209 13.9 25.2 0.00 0.00 0.00 75 1013.3
20260505232003 57 207 13.9 23.5 0.00 0.00 0.00 75 1013.1
20260505231503 57 210 13.0 23.5 0.00 0.00 0.00 74 1013.2
20260505231003 57 213 12.2 23.5 0.00 0.00 0.00 72 1013.2
20260505230506 58 214 12.2 22.6 0.00 0.00 0.00 71 1013.0
20260505230003 58 213 12.2 26.1 0.00 0.00 0.00 69 1013.0
20260505225503 59 210 12.2 26.1 0.00 0.00 0.00 68 1012.9
20260505225003 59 211 12.2 20.0 0.00 0.00 0.00 66 1013.0
20260505224503 60 209 11.3 26.1 0.00 0.00 0.00 65 1013.0
20260505224003 60 207 11.3 26.1 0.00 0.00 0.00 63 1013.0
20260505223503 61 204 12.2 20.9 0.00 0.00 0.00 62 1013.0
20260505223003 62 203 12.2 26.1 0.00 0.00 0.00 59 1012.8
20260505222524 62 208 13.0 26.1 0.00 0.00 0.00 57 1012.7
20260505222003 63 214 15.6 27.8 0.00 0.00 0.00 56 1012.7
20260505221502 63 214 15.6 27.8 0.00 0.00 0.00 56 1012.9
20260505221003 63 208 12.2 25.2 0.00 0.00 0.00 55 1012.6
20260505220503 64 207 11.3 22.6 0.00 0.00 0.00 54 1012.6
20260505220002 65 213 12.2 21.7 0.00 0.00 0.00 53 1012.5
20260505215503 65 213 13.9 25.2 0.00 0.00 0.00 52 1012.6
20260505215003 65 212 13.0 25.2 0.00 0.00 0.00 51 1012.5
20260505214503 65 214 12.2 26.1 0.00 0.00 0.00 51 1012.4
20260505214003 66 218 12.2 27.8 0.00 0.00 0.00 49 1012.3
20260505213503 66 223 13.0 27.8 0.00 0.00 0.00 49 1012.3
20260505213003 66 226 14.8 26.9 0.00 0.00 0.00 49 1012.4
20260505212524 66 224 15.6 26.9 0.00 0.00 0.00 47 1012.4
20260505212003 66 221 16.5 26.9 0.00 0.00 0.00 47 1012.3
20260505211503 67 220 15.6 25.2 0.00 0.00 0.00 46 1012.3
20260505211003 67 219 16.5 30.4 0.00 0.00 0.00 46 1012.4
20260505210503 67 216 15.6 30.4 0.00 0.00 0.00 46 1012.3
20260505210004 68 215 14.8 26.9 0.00 0.00 0.00 45 1012.2
20260505205503 68 217 14.8 26.9 0.00 0.00 0.00 46 1012.1
20260505205003 68 218 15.6 26.9 0.00 0.00 0.00 44 1012.2
20260505204503 68 218 15.6 26.9 0.00 0.00 0.00 45 1012.2
20260505204024 68 218 14.8 25.2 0.00 0.00 0.00 44 1012.2
20260505203524 68 213 14.8 23.5 0.00 0.00 0.00 44 1012.2
20260505203024 69 213 14.8 26.9 0.00 0.00 0.00 45 1012.0
20260505202503 69 218 14.8 26.9 0.00 0.00 0.00 45 1012.3
20260505202003 69 215 15.6 25.2 0.00 0.00 0.00 45 1012.3
20260505201503 69 215 15.6 26.9 0.00 0.00 0.00 45 1012.2
20260505201024 69 220 14.8 26.9 0.00 0.00 0.00 44 1012.5
20260505200503 70 220 13.0 26.1 0.00 0.00 0.00 44 1012.1
20260505200003 70 218 13.0 25.2 0.00 0.00 0.00 45 1011.8
20260505195503 70 217 13.9 23.5 0.00 0.00 0.00 44 1011.7
20260505195003 70 220 13.9 26.9 0.00 0.00 0.00 46 1011.6
20260505194502 69 221 13.9 26.9 0.00 0.00 0.00 46 1011.7
20260505194003 69 213 14.8 24.3 0.00 0.00 0.00 47 1011.7
20260505193503 69 211 16.5 25.2 0.00 0.00 0.00 46 1011.7
20260505193003 69 214 15.6 26.1 0.00 0.00 0.00 46 1011.8
20260505192524 69 214 15.6 26.1 0.00 0.00 0.00 46 1011.5
20260505192003 70 217 16.5 29.5 0.00 0.00 0.00 45 1011.5
20260505191502 70 217 16.5 29.5 0.00 0.00 0.00 45 1011.7
20260505191003 70 210 15.6 26.1 0.00 0.00 0.00 44 1011.4
20260505190503 71 205 14.8 25.2 0.00 0.00 0.00 44 1011.5
20260505190003 71 208 14.8 26.1 0.00 0.00 0.00 45 1011.4
20260505185503 71 215 14.8 26.1 0.00 0.00 0.00 45 1011.4
20260505185003 71 220 13.9 24.3 0.00 0.00 0.00 45 1011.6
20260505184503 71 217 13.9 24.3 0.00 0.00 0.00 45 1011.5
20260505184003 71 212 13.9 23.5 0.00 0.00 0.00 48 1011.4
20260505183503 71 213 13.0 23.5 0.00 0.00 0.00 47 1011.5
20260505183003 71 215 11.3 21.7 0.00 0.00 0.00 47 1011.4
20260505182003 70 199 11.3 20.0 0.00 0.00 0.00 51 1011.4
20260505181503 70 187 11.3 21.7 0.00 0.00 0.00 51 1011.4
20260505181003 70 184 10.4 21.7 0.00 0.00 0.00 51 1011.5
20260505180503 70 186 12.2 20.0 0.00 0.00 0.00 50 1011.6
20260505180003 70 183 12.2 20.0 0.00 0.00 0.00 50 1011.7
20260505175503 70 191 10.4 20.9 0.00 0.00 0.00 51 1011.5
20260505175024 72 204 9.6 20.9 0.00 0.00 0.00 49 1011.5
20260505174503 71 213 10.4 17.4 0.00 0.00 0.00 48 1011.5
20260505174003 71 212 11.3 18.2 0.00 0.00 0.00 48 1011.5
20260505173524 71 201 11.3 18.2 0.00 0.00 0.00 48 1011.5
20260505173003 70 199 10.4 16.5 0.00 0.00 0.00 50 1011.4
20260505172503 70 206 9.6 16.5 0.00 0.00 0.00 50 1011.5
20260505172003 70 216 8.7 16.5 0.00 0.00 0.00 51 1011.6
20260505171503 70 209 9.6 16.5 0.00 0.00 0.00 53 1011.7
20260505171003 69 198 9.6 16.5 0.00 0.00 0.00 52 1011.7
20260505170503 70 206 8.7 15.6 0.00 0.00 0.00 53 1011.7
20260505170003 69 207 8.7 15.6 0.00 0.00 0.00 52 1011.7
20260505165503 68 194 8.7 13.9 0.00 0.00 0.00 54 1011.6
20260505165003 68 185 8.7 13.9 0.00 0.00 0.00 55 1011.7
20260505164524 68 191 8.7 14.8 0.00 0.00 0.00 55 1011.6
20260505164003 67 207 8.7 16.5 0.00 0.00 0.00 57 1011.6
20260505163524 67 208 9.6 16.5 0.00 0.00 0.00 58 1011.6
20260505163003 66 198 10.4 18.2 0.00 0.00 0.00 56 1011.5
20260505162503 66 194 10.4 18.2 0.00 0.00 0.00 57 1011.5
20260505162024 66 196 9.6 17.4 0.00 0.00 0.00 56 1011.4
20260505161503 66 188 10.4 17.4 0.00 0.00 0.00 57 1011.5
20260505161003 66 188 9.6 19.1 0.00 0.00 0.00 56 1011.5
20260505160503 66 194 9.6 19.1 0.00 0.00 0.00 58 1011.5
20260505153003 66 207 9.6 17.4 0.00 0.00 0.00 55 1011.5
20260505152524 66 203 9.6 17.4 0.00 0.00 0.00 56 1011.4
20260505152003 66 209 8.7 15.6 0.00 0.00 0.00 59 1011.3
20260505151503 66 214 8.7 18.2 0.00 0.00 0.00 56 1011.3
20260505151003 66 213 9.6 18.2 0.00 0.00 0.00 56 1011.4
20260505150503 65 205 10.4 18.2 0.00 0.00 0.00 56 1011.3
20260505140503 61 221 10.4 17.4 0.00 0.00 0.00 61 1011.9
20260505125003 55 239 11.3 18.2 0.00 0.00 0.00 64 1011.2
20260505124503 56 236 9.6 17.4 0.00 0.00 0.00 63 1011.3
20260505124003 55 235 8.7 17.4 0.00 0.00 0.00 66 1011.3
20260505123503 55 236 10.4 16.5 0.00 0.00 0.00 65 1011.2
20260505123003 54 233 10.4 16.5 0.00 0.00 0.00 66 1011.0
20260505122524 54 226 9.6 16.5 0.00 0.00 0.00 66 1011.1
20260505122003 54 222 9.6 17.4 0.00 0.00 0.00 66 1011.0
20260505121503 54 225 10.4 17.4 0.00 0.00 0.00 67 1011.1
20260505121004 54 227 9.6 16.5 0.00 0.00 0.00 68 1011.1
20260505120503 54 227 8.7 15.6 0.00 0.00 0.00 69 1011.0
20260505120003 54 229 7.8 13.9 0.00 0.00 0.00 69 1010.9
20260505115503 54 225 7.0 13.0 0.00 0.00 0.00 70 1011.0
20260505115003 53 221 7.0 13.0 0.00 0.00 0.00 71 1011.1
20260505114503 53 223 7.0 14.8 0.00 0.00 0.00 71 1011.1
20260505114003 52 217 6.1 14.8 0.00 0.00 0.00 72 1011.1
20260505113524 52 223 7.8 14.8 0.00 0.00 0.00 74 1011.2
20260505113003 52 233 7.8 14.8 0.00 0.00 0.00 74 1011.2
20260505112503 51 231 7.0 13.0 0.00 0.00 0.00 76 1011.2
20260505112003 51 233 7.0 12.2 0.00 0.00 0.00 75 1011.2
20260505111504 50 239 7.8 13.9 0.00 0.00 0.00 76 1011.1
20260505111024 50 236 7.8 13.9 0.00 0.00 0.00 78 1011.0
20260505110503 50 234 7.8 13.9 0.00 0.00 0.00 78 1010.8
20260505102003 46 213 5.2 8.7 0.00 0.00 0.00 84 1010.6
20260505101503 46 215 6.1 10.4 0.00 0.00 0.00 85 1010.4
20260505101003 45 212 6.1 10.4 0.00 0.00 0.00 85 1010.4
20260505100503 45 209 6.1 13.9 0.00 0.00 0.00 86 1010.4
20260505100024 45 212 6.1 13.9 0.00 0.00 0.00 86 1010.3
20260505095524 44 216 6.1 10.4 0.00 0.00 0.00 87 1010.1
20260505095003 44 215 5.2 10.4 0.00 0.00 0.00 87 1010.1
20260505094503 44 211 6.1 10.4 0.00 0.00 0.00 88 1010.1
20260505094003 43 207 6.1 10.4 0.00 0.00 0.00 88 1010.0
20260505093504 43 205 6.1 8.7 0.00 0.00 0.00 88 1009.9
20260505093003 43 206 6.1 9.6 0.00 0.00 0.00 88 1009.7
20260505092503 43 209 6.1 10.4 0.00 0.00 0.00 88 1009.9
20260505092003 43 213 7.0 10.4 0.00 0.00 0.00 88 1009.9
20260505091504 42 216 6.1 12.2 0.00 0.00 0.00 88 1009.7
20260505091003 42 218 7.0 12.2 0.00 0.00 0.00 89 1009.7
20260505090503 42 218 7.0 11.3 0.00 0.00 0.00 88 1009.6
20260505090024 43 219 6.1 9.6 0.00 0.00 0.00 88 1009.5
20260505085503 43 221 6.1 12.2 0.00 0.00 0.00 88 1009.3
20260505085024 43 222 6.1 12.2 0.00 0.00 0.00 88 1009.3